Lid_Strength_Index
2 2 3 3 3 4 4 4 4 4 3 3 3 3 4 4 4 4 4 4 4 4 4 4 3 3 3 5 6 1 -1 -2 2 4 4 4 4 5 7 6 6 7 7 6 6 6 7
3 3 3 3 3 3 3 3 4 4 4 4 4 4 4 4 4 4 4 4 4 4 4 4 4 3 4 7 1 -1 1 2 4 4 5 3 3 3 5 6 6 6 6 7 6 6 6
3 3 3 3 3 3 3 3 3 4 4 4 4 4 4 4 4 4 4 5 4 4 4 3 3 3 5 5 1 1 2 4 4 4 5 4 4 3 4 7 5 6 8 7 7 7 8
3 3 3 4 4 4 4 4 4 4 4 4 4 4 5 4 4 4 5 5 4 3 4 3 3 2 6 3 0 2 2 4 4 4 5 4 6 3 4 4 6 8 8 11 8 7 7
3 3 3 4 4 4 4 4 4 4 4 4 4 4 5 5 5 5 5 5 3 3 3 2 2 3 5 2 3 2 1 3 4 4 4 4 3 4 5 7 9 9 11 11 11 7 8
3 3 3 3 4 4 4 4 4 4 4 4 4 4 4 5 5 5 5 5 2 2 1 2 2 4 4 4 3 2 1 3 5 5 6 5 4 6 6 8 11 10 10 10 11 9 8
3 3 3 3 3 4 4 4 4 4 4 4 4 4 4 5 5 5 4 2 3 3 3 5 4 4 4 2 2 2 2 5 5 6 8 5 6 8 7 7 7 8 9 11 9 8 9
2 3 3 3 3 3 4 4 4 4 4 4 4 4 5 5 5 5 3 3 4 4 5 4 3 3 2 2 5 3 2 5 7 8 6 6 7 5 6 7 7 8 10 11 9 8 9
2 2 3 3 3 3 3 4 4 4 4 4 4 4 5 5 5 4 2 3 2 3 4 4 3 3 3 2 5 4 3 4 7 8 7 7 6 5 6 7 8 8 9 10 10 9 8
2 2 3 3 3 3 3 4 4 4 4 4 4 4 5 5 5 2 3 3 2 2 7 6 5 3 3 3 5 3 2 4 6 7 7 6 5 6 7 7 7 9 7 9 10 10 13
2 2 3 3 3 3 4 4 4 4 4 4 4 5 5 6 3 3 3 2 1 2 12 6 5 1 3 4 4 4 2 4 7 6 6 7 6 7 7 7 6 8 7 8 9 10 10
2 2 2 3 3 3 4 4 4 4 4 4 4 5 6 4 3 3 2 2 2 8 12 7 5 5 5 4 5 4 4 3 4 6 5 6 4 5 6 5 5 6 8 9 9 10 14
2 2 3 3 3 4 4 4 4 4 4 5 5 6 6 2 3 1 3 3 8 10 6 8 7 6 6 6 6 5 6 6 7 8 8 6 6 5 5 6 5 7 8 13 14 14 14
2 2 3 3 3 3 4 4 4 4 4 5 6 7 5 2 1 2 2 5 10 8 8 6 6 6 7 6 6 6 6 7 6 6 7 9 10 6 5 6 7 8 8 11 17 16 15
2 2 2 3 3 3 3 4 4 4 4 5 6 2 2 1 1 1 4 8 7 7 6 7 6 8 8 7 6 6 7 7 6 6 8 8 9 6 6 5 6 7 9 7 11 11 13
2 2 2 3 3 3 3 3 4 4 5 5 3 2 2 1 1 2 5 9 7 5 5 6 8 7 9 8 8 7 7 6 6 5 5 7 10 7 7 6 6 7 6 10 10 16 17
2 2 2 3 3 3 3 3 4 4 5 5 2 4 2 2 2 4 7 7 6 4 5 6 7 8 7 8 8 8 8 6 6 6 5 6 7 9 7 9 9 8 9 8 8 11 16
3 3 3 3 3 3 3 3 4 5 5 4 4 6 2 2 5 4 6 6 7 6 5 5 5 6 7 7 8 8 8 7 5 5 7 6 7 10 9 6 6 7 9 8 12 14 11
4 4 3 3 4 4 4 4 4 5 6 3 5 4 1 2 7 6 5 6 5 6 6 6 6 5 5 7 8 7 7 5 5 5 6 5 7 11 10 8 7 8 8 7 7 12 15
4 4 4 4 4 3 4 5 5 5 6 4 6 7 4 3 3 5 6 6 6 5 5 6 5 5 6 7 6 7 7 6 5 5 5 4 7 9 12 10 8 9 9 8 8 10 10
3 4 3 4 4 4 4 4 5 6 6 4 5 7 5 7 6 5 5 6 6 7 5 5 6 6 6 8 7 7 6 6 5 6 5 5 9 8 8 8 8 9 9 9 9 9 10
3 3 3 4 5 5 4 4 5 5 6 4 6 6 3 5 6 6 7 6 6 6 6 6 6 6 5 7 6 7 6 6 6 5 5 5 9 8 10 9 9 9 9 9 9 9 9
3 3 3 4 4 5 4 4 4 6 6 4 4 4 5 7 6 6 6 6 6 5 5 5 5 5 6 5 4 4 4 5 5 6 7 7 7 9 12 9 9 11 9 9 9 8 8
3 3 3 4 4 4 4 4 4 4 5 4 5 5 6 8 6 6 6 6 6 5 6 6 5 5 4 2 3 3 4 4 5 5 5 7 8 8 10 10 14 9 7 7 8 8 8
3 3 3 3 3 3 3 3 3 3 5 4 5 5 6 8 7 6 6 6 5 5 5 6 4 4 2 3 6 7 7 7 6 6 5 5 7 9 11 11 9 9 8 8 9 9 7
3 3 2 3 2 2 2 3 3 3 4 4 3 4 5 6 6 5 6 5 7 6 6 5 5 3 4 5 6 10 9 8 9 8 5 6 6 8 9 12 13 9 7 5 6 10 6
2 2 3 3 2 3 2 2 2 2 1 2 3 3 4 6 4 4 5 6 5 6 6 5 6 6 4 6 8 9 9 8 10 10 10 8 8 10 10 11 9 7 6 5 12 10 6
2 2 2 2 2 2 2 2 1 1 1 1 3 2 4 4 4 4 3 4 5 5 7 5 6 6 6 7 7 8 8 8 9 8 8 9 10 10 9 11 13 5 6 9 7 5 5
2 2 2 2 3 2 2 2 1 1 2 2 4 2 1 4 4 2 2 2 2 2 4 4 5 5 4 6 6 5 8 8 7 10 7 9 7 9 8 9 6 4 5 4 4 5 5